TimeEST,TemperatureF,Dew PointF,Humidity,Sea Level PressureIn,VisibilityMPH,Wind Direction,Wind SpeedMPH,Gust SpeedMPH,PrecipitationIn,Events,Conditions,WindDirDegrees,DateUTC
12:53 AM,26.1,19.0,75,29.93,10.0,SW,12.7,-,N/A,,Overcast,220,2013-02-06 05:53:00
1:53 AM,26.1,19.9,78,29.94,10.0,SW,13.8,-,N/A,,Overcast,230,2013-02-06 06:53:00
2:06 AM,26.6,21.2,80,29.92,10.0,SW,12.7,-,N/A,,Overcast,230,2013-02-06 07:06:00
2:53 AM,27.0,23.0,85,29.96,6.0,SW,10.4,-,0.00,,Overcast,230,2013-02-06 07:53:00
3:23 AM,28.4,23.0,80,29.93,8.0,West,12.7,19.6,0.00,,Overcast,260,2013-02-06 08:23:00
3:53 AM,28.9,23.0,78,29.97,9.0,West,10.4,19.6,0.00,,Overcast,270,2013-02-06 08:53:00
4:53 AM,28.9,21.0,72,30.02,7.0,WNW,13.8,23.0,0.00,Snow,Light Snow,290,2013-02-06 09:53:00
5:37 AM,26.6,19.4,74,30.01,10.0,NW,10.4,23.0,0.00,,Overcast,310,2013-02-06 10:37:00
5:53 AM,27.0,17.1,66,30.05,10.0,NW,16.1,21.9,0.00,,Overcast,310,2013-02-06 10:53:00
6:53 AM,26.1,16.0,66,30.09,10.0,NW,16.1,23.0,N/A,,Overcast,310,2013-02-06 11:53:00
7:53 AM,25.0,16.0,69,30.15,10.0,NW,13.8,21.9,N/A,,Overcast,310,2013-02-06 12:53:00
8:53 AM,25.0,14.0,63,30.19,10.0,NW,9.2,19.6,N/A,,Clear,310,2013-02-06 13:53:00
9:53 AM,25.0,14.0,63,30.22,10.0,NW,15.0,19.6,N/A,,Partly Cloudy,310,2013-02-06 14:53:00
10:53 AM,25.0,15.1,66,30.25,10.0,NW,10.4,-,N/A,,Partly Cloudy,310,2013-02-06 15:53:00
11:43 AM,26.6,15.8,64,30.23,10.0,NW,8.1,-,N/A,,Mostly Cloudy,310,2013-02-06 16:43:00
11:53 AM,25.0,15.1,66,30.26,10.0,WNW,9.2,-,N/A,,Mostly Cloudy,290,2013-02-06 16:53:00
12:53 PM,25.0,15.1,66,30.27,10.0,WNW,8.1,-,N/A,,Overcast,300,2013-02-06 17:53:00
1:37 PM,24.8,15.8,69,30.25,10.0,WNW,6.9,-,N/A,,Overcast,300,2013-02-06 18:37:00
1:53 PM,25.0,15.1,66,30.28,10.0,WNW,6.9,-,N/A,,Overcast,300,2013-02-06 18:53:00
2:53 PM,25.0,15.1,66,30.30,10.0,West,8.1,-,N/A,,Overcast,280,2013-02-06 19:53:00
3:53 PM,26.1,12.9,58,30.31,10.0,WSW,8.1,-,N/A,,Mostly Cloudy,240,2013-02-06 20:53:00
4:20 PM,24.8,14.0,64,30.27,10.0,WSW,6.9,-,N/A,,Mostly Cloudy,240,2013-02-06 21:20:00
4:53 PM,25.0,12.9,60,30.32,10.0,SW,11.5,-,N/A,,Mostly Cloudy,230,2013-02-06 21:53:00
5:14 PM,24.8,12.2,59,30.29,10.0,WSW,8.1,-,N/A,,Overcast,240,2013-02-06 22:14:00
5:53 PM,25.0,14.0,63,30.33,10.0,SW,10.4,-,N/A,,Overcast,230,2013-02-06 22:53:00
6:37 PM,21.2,12.2,68,30.30,10.0,South,4.6,-,N/A,,Scattered Clouds,180,2013-02-06 23:37:00
6:53 PM,19.9,12.0,71,30.35,10.0,SSW,4.6,-,N/A,,Clear,210,2013-02-06 23:53:00
7:53 PM,18.0,10.9,74,30.38,10.0,Calm,Calm,-,N/A,,Clear,0,2013-02-07 00:53:00
8:53 PM,17.1,10.0,74,30.38,10.0,South,5.8,-,N/A,,Clear,190,2013-02-07 01:53:00
9:53 PM,15.1,9.0,77,30.38,10.0,South,4.6,-,N/A,,Clear,170,2013-02-07 02:53:00
10:53 PM,10.9,7.0,84,30.38,10.0,SSE,5.8,-,N/A,,Clear,160,2013-02-07 03:53:00
11:53 PM,10.9,6.1,81,30.35,10.0,Calm,Calm,-,N/A,,Clear,0,2013-02-07 04:53:00